| time (UTC) | temp F | wind direction | speed MPH | gust MPH | rain 1hr in | rain 24hr in | rain mn in | humidity % | barometer mb |
| 20260906153542 | 59 | 251 | 2.0 | 6.0 | 0.00 | 0.00 | 0.00 | 88 | 1014.5 |
| 20260906153052 | 59 | 242 | 1.0 | 6.0 | 0.00 | 0.00 | 0.00 | 88 | 1014.6 |
| 20260906152541 | 59 | 272 | 1.0 | 5.0 | 0.00 | 0.00 | 0.00 | 89 | 1014.6 |
| 20260906152042 | 59 | 211 | 1.0 | 5.0 | 0.00 | 0.00 | 0.00 | 89 | 1014.5 |
| 20260906151550 | 58 | 273 | 1.0 | 6.0 | 0.00 | 0.00 | 0.00 | 89 | 1014.6 |
| 20260906151038 | 58 | 274 | 2.0 | 6.0 | 0.00 | 0.00 | 0.00 | 89 | 1014.6 |
| 20260906150540 | 58 | 237 | 2.0 | 4.0 | 0.00 | 0.00 | 0.00 | 89 | 1014.6 |
| 20260906150059 | 58 | 236 | 1.0 | 4.0 | 0.00 | 0.00 | 0.00 | 89 | 1014.6 |
| 20260906145538 | 58 | 263 | 1.0 | 3.0 | 0.00 | 0.00 | 0.00 | 89 | 1014.6 |
| 20260906145037 | 58 | 236 | 1.0 | 6.0 | 0.00 | 0.00 | 0.00 | 89 | 1014.6 |
| 20260906144552 | 58 | 228 | 2.0 | 6.0 | 0.00 | 0.00 | 0.00 | 89 | 1014.5 |
| 20260906144038 | 58 | 279 | 1.0 | 4.0 | 0.00 | 0.00 | 0.00 | 89 | 1014.4 |
| 20260906143538 | 58 | 293 | 1.0 | 4.0 | 0.00 | 0.00 | 0.00 | 89 | 1014.3 |
| 20260906143050 | 58 | 266 | 1.0 | 6.0 | 0.00 | 0.00 | 0.00 | 89 | 1014.1 |
| 20260906142537 | 58 | 267 | 1.0 | 6.0 | 0.00 | 0.00 | 0.00 | 89 | 1014.1 |
| 20260906142038 | 58 | 280 | 1.0 | 5.0 | 0.00 | 0.00 | 0.00 | 89 | 1014.0 |
| 20260906141549 | 58 | 244 | 2.0 | 5.0 | 0.00 | 0.00 | 0.00 | 89 | 1013.9 |
| 20260906141038 | 58 | 263 | 2.0 | 5.0 | 0.00 | 0.00 | 0.00 | 89 | 1013.9 |
| 20260906140535 | 58 | 238 | 2.0 | 5.0 | 0.00 | 0.00 | 0.00 | 89 | 1013.9 |
| 20260906140055 | 58 | 271 | 1.0 | 6.0 | 0.00 | 0.00 | 0.00 | 89 | 1013.9 |
| 20260906135539 | 58 | 286 | 2.0 | 6.0 | 0.00 | 0.00 | 0.00 | 89 | 1013.8 |
| 20260906135039 | 58 | 273 | 2.0 | 7.0 | 0.00 | 0.00 | 0.00 | 89 | 1013.8 |
| 20260906134551 | 58 | 274 | 2.0 | 7.0 | 0.00 | 0.00 | 0.00 | 89 | 1013.7 |
| 20260906134039 | 58 | 273 | 2.0 | 8.0 | 0.00 | 0.00 | 0.00 | 89 | 1013.7 |
| 20260906133537 | 58 | 267 | 3.0 | 8.0 | 0.00 | 0.00 | 0.00 | 89 | 1013.6 |
| 20260906133056 | 58 | 294 | 2.0 | 8.0 | 0.00 | 0.00 | 0.00 | 89 | 1013.6 |
| 20260906132539 | 58 | 0 | 2.0 | 7.0 | 0.00 | 0.00 | 0.00 | 89 | 1013.6 |
| 20260906132038 | 58 | 279 | 2.0 | 7.0 | 0.00 | 0.00 | 0.00 | 89 | 1013.6 |
| 20260906131553 | 58 | 279 | 2.0 | 7.0 | 0.00 | 0.00 | 0.00 | 89 | 1013.6 |
| 20260906131039 | 58 | 271 | 2.0 | 7.0 | 0.00 | 0.00 | 0.00 | 89 | 1013.7 |
| 20260906130535 | 58 | 297 | 2.0 | 8.0 | 0.00 | 0.00 | 0.00 | 89 | 1013.6 |
| 20260906130053 | 58 | 271 | 3.0 | 8.0 | 0.00 | 0.00 | 0.00 | 89 | 1013.5 |
| 20260906125540 | 58 | 259 | 2.0 | 8.0 | 0.00 | 0.00 | 0.00 | 89 | 1013.5 |
| 20260906125038 | 58 | 273 | 2.0 | 5.0 | 0.00 | 0.00 | 0.00 | 89 | 1013.5 |
| 20260906124549 | 58 | 259 | 2.0 | 7.0 | 0.00 | 0.00 | 0.00 | 89 | 1013.4 |
| 20260906124038 | 58 | 203 | 2.0 | 7.0 | 0.00 | 0.00 | 0.00 | 89 | 1013.4 |
| 20260906123539 | 58 | 272 | 1.0 | 6.0 | 0.00 | 0.00 | 0.00 | 89 | 1013.4 |
| 20260906123056 | 58 | 212 | 2.0 | 7.0 | 0.00 | 0.00 | 0.00 | 89 | 1013.5 |
| 20260906122541 | 58 | 288 | 2.0 | 7.0 | 0.00 | 0.00 | 0.00 | 89 | 1013.5 |
| 20260906122038 | 58 | 275 | 1.0 | 6.0 | 0.00 | 0.00 | 0.00 | 89 | 1013.5 |
| 20260906121556 | 58 | 271 | 1.0 | 6.0 | 0.00 | 0.00 | 0.00 | 89 | 1013.5 |
| 20260906121038 | 58 | 269 | 2.0 | 6.0 | 0.00 | 0.00 | 0.00 | 89 | 1013.4 |
| 20260906120537 | 58 | 268 | 2.0 | 6.0 | 0.00 | 0.00 | 0.00 | 89 | 1013.4 |
| 20260906120111 | 58 | 267 | 1.0 | 6.0 | 0.00 | 0.00 | 0.00 | 89 | 1013.5 |
| 20260906115539 | 58 | 278 | 2.0 | 7.0 | 0.00 | 0.00 | 0.00 | 89 | 1013.5 |
| 20260906115039 | 58 | 265 | 2.0 | 7.0 | 0.00 | 0.00 | 0.00 | 89 | 1013.5 |
| 20260906114548 | 58 | 294 | 1.0 | 3.0 | 0.00 | 0.00 | 0.00 | 89 | 1013.4 |
| 20260906114038 | 58 | 219 | 1.0 | 6.0 | 0.00 | 0.00 | 0.00 | 89 | 1013.5 |
| 20260906113537 | 58 | 281 | 2.0 | 7.0 | 0.00 | 0.00 | 0.00 | 89 | 1013.5 |
| 20260906113101 | 58 | 241 | 2.0 | 7.0 | 0.00 | 0.00 | 0.00 | 89 | 1013.5 |
| 20260906112539 | 58 | 303 | 2.0 | 7.0 | 0.00 | 0.00 | 0.00 | 89 | 1013.5 |
| 20260906112038 | 58 | 250 | 2.0 | 6.0 | 0.00 | 0.00 | 0.00 | 90 | 1013.4 |
| 20260906111608 | 58 | 300 | 1.0 | 7.0 | 0.00 | 0.00 | 0.00 | 89 | 1013.5 |
| 20260906111037 | 58 | 294 | 2.0 | 7.0 | 0.00 | 0.00 | 0.00 | 90 | 1013.4 |
| 20260906110539 | 58 | 257 | 1.0 | 4.0 | 0.00 | 0.00 | 0.00 | 90 | 1013.4 |
| 20260906110053 | 58 | 266 | 1.0 | 6.0 | 0.00 | 0.00 | 0.00 | 89 | 1013.5 |
| 20260906105537 | 58 | 235 | 2.0 | 6.0 | 0.00 | 0.00 | 0.00 | 89 | 1013.4 |
| 20260906105038 | 58 | 275 | 1.0 | 6.0 | 0.00 | 0.00 | 0.00 | 90 | 1013.4 |
| 20260906104549 | 58 | 282 | 1.0 | 6.0 | 0.00 | 0.00 | 0.00 | 89 | 1013.4 |
| 20260906104037 | 58 | 257 | 2.0 | 6.0 | 0.00 | 0.00 | 0.00 | 90 | 1013.4 |
| 20260906103541 | 58 | 255 | 2.0 | 9.0 | 0.00 | 0.00 | 0.00 | 90 | 1013.4 |
| 20260906103055 | 58 | 233 | 2.0 | 9.0 | 0.00 | 0.00 | 0.00 | 90 | 1013.5 |
| 20260906102538 | 58 | 297 | 3.0 | 7.0 | 0.00 | 0.00 | 0.00 | 90 | 1013.5 |
| 20260906102041 | 58 | 275 | 2.0 | 7.0 | 0.00 | 0.00 | 0.00 | 90 | 1013.4 |
| 20260906101604 | 58 | 272 | 2.0 | 6.0 | 0.00 | 0.00 | 0.00 | 90 | 1013.4 |
| 20260906101037 | 58 | 275 | 3.0 | 6.0 | 0.00 | 0.00 | 0.00 | 90 | 1013.4 |
| 20260906100540 | 58 | 246 | 2.0 | 6.0 | 0.00 | 0.00 | 0.00 | 90 | 1013.4 |
| 20260906100051 | 58 | 271 | 1.0 | 4.0 | 0.00 | 0.00 | 0.00 | 90 | 1013.4 |
| 20260906095538 | 58 | 282 | 2.0 | 6.0 | 0.00 | 0.00 | 0.00 | 90 | 1013.4 |
| 20260906095037 | 58 | 260 | 1.0 | 7.0 | 0.00 | 0.00 | 0.00 | 90 | 1013.4 |
| 20260906094559 | 58 | 292 | 1.0 | 7.0 | 0.00 | 0.00 | 0.00 | 90 | 1013.5 |
| 20260906094038 | 58 | 248 | 1.0 | 7.0 | 0.00 | 0.00 | 0.00 | 90 | 1013.5 |
| 20260906093538 | 58 | 252 | 2.0 | 7.0 | 0.00 | 0.00 | 0.00 | 91 | 1013.5 |
| 20260906093056 | 58 | 224 | 2.0 | 6.0 | 0.00 | 0.00 | 0.00 | 91 | 1013.5 |
| 20260906092539 | 58 | 269 | 1.0 | 6.0 | 0.00 | 0.00 | 0.00 | 91 | 1013.5 |
| 20260906092039 | 58 | 276 | 2.0 | 7.0 | 0.00 | 0.00 | 0.00 | 91 | 1013.5 |
| 20260906091551 | 58 | 254 | 2.0 | 7.0 | 0.00 | 0.00 | 0.00 | 91 | 1013.6 |
| 20260906091036 | 58 | 299 | 2.0 | 6.0 | 0.00 | 0.00 | 0.00 | 91 | 1013.6 |
| 20260906090537 | 58 | 273 | 2.0 | 6.0 | 0.00 | 0.00 | 0.00 | 91 | 1013.6 |
| 20260906090054 | 58 | 269 | 1.0 | 4.0 | 0.00 | 0.00 | 0.00 | 91 | 1013.6 |
| 20260906085539 | 58 | 229 | 2.0 | 4.0 | 0.00 | 0.00 | 0.00 | 91 | 1013.7 |
| 20260906085037 | 58 | 265 | 1.0 | 5.0 | 0.00 | 0.00 | 0.00 | 91 | 1013.7 |
| 20260906084555 | 58 | 273 | 2.0 | 5.0 | 0.00 | 0.00 | 0.00 | 91 | 1013.7 |
| 20260906084035 | 58 | 299 | 1.0 | 4.0 | 0.00 | 0.00 | 0.00 | 91 | 1013.8 |
| 20260906083537 | 58 | 296 | 1.0 | 4.0 | 0.00 | 0.00 | 0.00 | 91 | 1013.7 |
| 20260906083057 | 58 | 246 | 1.0 | 4.0 | 0.00 | 0.00 | 0.00 | 91 | 1013.7 |
| 20260906082537 | 58 | 263 | 2.0 | 6.0 | 0.00 | 0.00 | 0.00 | 91 | 1013.7 |
| 20260906082036 | 58 | 214 | 2.0 | 6.0 | 0.00 | 0.00 | 0.00 | 91 | 1013.8 |
| 20260906081553 | 58 | 243 | 2.0 | 6.0 | 0.00 | 0.00 | 0.00 | 91 | 1013.8 |
| 20260906081037 | 59 | 279 | 2.0 | 4.0 | 0.00 | 0.00 | 0.00 | 92 | 1013.7 |
| 20260906080538 | 59 | 252 | 1.0 | 4.0 | 0.00 | 0.00 | 0.00 | 92 | 1013.7 |
| 20260906080057 | 59 | 253 | 1.0 | 4.0 | 0.00 | 0.00 | 0.00 | 92 | 1013.8 |
| 20260906075539 | 59 | 279 | 1.0 | 4.0 | 0.00 | 0.00 | 0.00 | 92 | 1013.8 |
| 20260906075037 | 59 | 232 | 1.0 | 3.0 | 0.00 | 0.00 | 0.00 | 92 | 1013.9 |
| 20260906074600 | 59 | 232 | 1.0 | 3.0 | 0.00 | 0.00 | 0.00 | 92 | 1013.8 |
| 20260906074036 | 59 | 232 | 1.0 | 3.0 | 0.00 | 0.00 | 0.00 | 92 | 1013.9 |
| 20260906073538 | 59 | 252 | 1.0 | 3.0 | 0.00 | 0.00 | 0.00 | 92 | 1013.9 |
| 20260906073054 | 59 | 236 | 1.0 | 3.0 | 0.00 | 0.00 | 0.00 | 91 | 1013.9 |
| 20260906072538 | 59 | 236 | 1.0 | 3.0 | 0.00 | 0.00 | 0.00 | 91 | 1013.8 |
| 20260906072038 | 59 | 253 | 1.0 | 3.0 | 0.00 | 0.00 | 0.00 | 91 | 1013.8 |
| 20260906071600 | 59 | 238 | 1.0 | 3.0 | 0.00 | 0.00 | 0.00 | 91 | 1013.9 |
| 20260906071037 | 59 | 225 | 1.0 | 3.0 | 0.00 | 0.00 | 0.00 | 91 | 1013.9 |
| 20260906070539 | 59 | 225 | 1.0 | 3.0 | 0.00 | 0.00 | 0.00 | 91 | 1013.9 |
| 20260906070104 | 59 | 222 | 1.0 | 3.0 | 0.00 | 0.00 | 0.00 | 91 | 1013.8 |
| 20260906065537 | 59 | 234 | 1.0 | 3.0 | 0.00 | 0.00 | 0.00 | 91 | 1013.9 |
| 20260906065038 | 59 | 234 | 0.0 | 3.0 | 0.00 | 0.00 | 0.00 | 91 | 1013.9 |
| 20260906064556 | 58 | 0 | 0.0 | 2.0 | 0.00 | 0.00 | 0.00 | 91 | 1013.9 |
| 20260906064036 | 58 | 0 | 0.0 | 1.0 | 0.00 | 0.00 | 0.00 | 91 | 1013.9 |
| 20260906063535 | 58 | 0 | 0.0 | 1.0 | 0.00 | 0.00 | 0.00 | 91 | 1013.9 |
| 20260906063057 | 59 | 223 | 0.0 | 2.0 | 0.00 | 0.00 | 0.00 | 91 | 1014.0 |
| 20260906062537 | 59 | 223 | 0.0 | 3.0 | 0.00 | 0.00 | 0.00 | 91 | 1014.0 |
| 20260906062038 | 59 | 223 | 0.0 | 3.0 | 0.00 | 0.00 | 0.00 | 91 | 1014.0 |
| 20260906061558 | 59 | 277 | 0.0 | 2.0 | 0.00 | 0.00 | 0.00 | 91 | 1014.0 |
| 20260906061038 | 59 | 277 | 0.0 | 2.0 | 0.00 | 0.00 | 0.00 | 91 | 1014.1 |
| 20260906060538 | 59 | 0 | 0.0 | 3.0 | 0.00 | 0.00 | 0.00 | 91 | 1014.1 |
| 20260906060051 | 59 | 277 | 1.0 | 3.0 | 0.00 | 0.00 | 0.00 | 91 | 1014.2 |
| 20260906055537 | 59 | 277 | 1.0 | 2.0 | 0.00 | 0.00 | 0.00 | 91 | 1014.1 |
| 20260906055037 | 59 | 234 | 0.0 | 2.0 | 0.00 | 0.00 | 0.00 | 91 | 1014.1 |
| 20260906054556 | 59 | 270 | 1.0 | 3.0 | 0.00 | 0.00 | 0.00 | 91 | 1014.2 |
| 20260906054040 | 59 | 270 | 0.0 | 3.0 | 0.00 | 0.00 | 0.00 | 91 | 1014.2 |
| 20260906053533 | 59 | 270 | 0.0 | 3.0 | 0.00 | 0.00 | 0.00 | 91 | 1014.3 |
| 20260906053055 | 59 | 270 | 1.0 | 3.0 | 0.00 | 0.00 | 0.00 | 91 | 1014.2 |
| 20260906052537 | 59 | 305 | 0.0 | 5.0 | 0.00 | 0.00 | 0.00 | 91 | 1014.2 |
| 20260906052039 | 59 | 273 | 1.0 | 5.0 | 0.00 | 0.00 | 0.00 | 91 | 1014.2 |
| 20260906051602 | 59 | 281 | 1.0 | 4.0 | 0.00 | 0.00 | 0.00 | 91 | 1014.3 |
| 20260906051038 | 59 | 0 | 1.0 | 4.0 | 0.00 | 0.00 | 0.00 | 91 | 1014.3 |
| 20260906050540 | 59 | 275 | 1.0 | 6.0 | 0.00 | 0.00 | 0.00 | 91 | 1014.3 |
| 20260906045539 | 59 | 281 | 2.0 | 6.0 | 0.00 | 0.00 | 0.00 | 90 | 1014.3 |
| 20260906045037 | 59 | 259 | 2.0 | 6.0 | 0.00 | 0.00 | 0.00 | 90 | 1014.3 |
| 20260906044555 | 59 | 290 | 2.0 | 9.0 | 0.00 | 0.00 | 0.00 | 90 | 1014.3 |
| 20260906044037 | 59 | 331 | 2.0 | 9.0 | 0.00 | 0.00 | 0.00 | 90 | 1014.2 |
| 20260906043536 | 60 | 0 | 1.0 | 7.0 | 0.00 | 0.00 | 0.00 | 90 | 1014.2 |
| 20260906043053 | 60 | 267 | 2.0 | 7.0 | 0.00 | 0.00 | 0.00 | 90 | 1014.2 |
| 20260906042538 | 60 | 313 | 1.0 | 4.0 | 0.00 | 0.00 | 0.00 | 90 | 1014.2 |
| 20260906042036 | 60 | 286 | 1.0 | 5.0 | 0.00 | 0.00 | 0.00 | 90 | 1014.1 |
| 20260906041555 | 60 | 279 | 1.0 | 6.0 | 0.00 | 0.00 | 0.00 | 90 | 1014.0 |
| 20260906041038 | 60 | 289 | 1.0 | 6.0 | 0.00 | 0.00 | 0.00 | 90 | 1014.0 |
| 20260906040537 | 60 | 264 | 1.0 | 4.0 | 0.00 | 0.00 | 0.00 | 90 | 1013.9 |
| 20260906040110 | 60 | 259 | 1.0 | 4.0 | 0.00 | 0.00 | 0.00 | 90 | 1013.9 |
| 20260906035537 | 60 | 263 | 2.0 | 4.0 | 0.00 | 0.00 | 0.00 | 89 | 1013.9 |
| 20260906035038 | 60 | 264 | 1.0 | 6.0 | 0.00 | 0.00 | 0.00 | 89 | 1013.8 |
| 20260906034555 | 60 | 282 | 2.0 | 7.0 | 0.00 | 0.00 | 0.00 | 89 | 1013.7 |
| 20260906034037 | 60 | 298 | 2.0 | 7.0 | 0.00 | 0.00 | 0.00 | 89 | 1013.7 |
| 20260906033538 | 60 | 265 | 1.0 | 6.0 | 0.00 | 0.00 | 0.00 | 89 | 1013.7 |
| 20260906033053 | 60 | 252 | 2.0 | 6.0 | 0.00 | 0.00 | 0.00 | 89 | 1013.6 |
| 20260906032537 | 60 | 273 | 2.0 | 7.0 | 0.00 | 0.00 | 0.00 | 89 | 1013.5 |
| 20260906032037 | 60 | 286 | 2.0 | 9.0 | 0.00 | 0.00 | 0.00 | 89 | 1013.4 |
| 20260906031600 | 60 | 273 | 2.0 | 9.0 | 0.00 | 0.00 | 0.00 | 88 | 1013.4 |
| 20260906031037 | 60 | 269 | 2.0 | 7.0 | 0.00 | 0.00 | 0.00 | 88 | 1013.4 |
| 20260906030538 | 60 | 274 | 2.0 | 7.0 | 0.00 | 0.00 | 0.00 | 88 | 1013.4 |
| 20260906025537 | 61 | 313 | 4.0 | 8.0 | 0.00 | 0.00 | 0.00 | 87 | 1013.2 |
| 20260906025039 | 61 | 273 | 2.0 | 6.0 | 0.00 | 0.00 | 0.00 | 87 | 1013.2 |
| 20260906024616 | 61 | 270 | 3.0 | 6.0 | 0.00 | 0.00 | 0.00 | 87 | 1013.3 |
| 20260906024037 | 61 | 302 | 2.0 | 7.0 | 0.00 | 0.00 | 0.00 | 87 | 1013.3 |
| 20260906023538 | 61 | 280 | 1.0 | 7.0 | 0.00 | 0.00 | 0.00 | 86 | 1013.4 |
| 20260906023051 | 61 | 271 | 1.0 | 7.0 | 0.00 | 0.00 | 0.00 | 86 | 1013.4 |
| 20260906022537 | 61 | 287 | 2.0 | 6.0 | 0.00 | 0.00 | 0.00 | 86 | 1013.4 |
| 20260906022040 | 61 | 267 | 2.0 | 6.0 | 0.00 | 0.00 | 0.00 | 86 | 1013.4 |
| 20260906021551 | 61 | 255 | 2.0 | 6.0 | 0.00 | 0.00 | 0.00 | 86 | 1013.4 |
| 20260906021037 | 61 | 272 | 2.0 | 7.0 | 0.00 | 0.00 | 0.00 | 85 | 1013.4 |
| 20260906020537 | 61 | 284 | 2.0 | 9.0 | 0.00 | 0.00 | 0.00 | 85 | 1013.5 |
| 20260906015537 | 61 | 289 | 2.0 | 8.0 | 0.00 | 0.00 | 0.00 | 85 | 1013.5 |
| 20260906015038 | 62 | 278 | 3.0 | 6.0 | 0.00 | 0.00 | 0.00 | 85 | 1013.5 |
| 20260906014602 | 62 | 300 | 2.0 | 8.0 | 0.00 | 0.00 | 0.00 | 85 | 1013.5 |
| 20260906014038 | 62 | 279 | 3.0 | 9.0 | 0.00 | 0.00 | 0.00 | 85 | 1013.6 |
| 20260906013537 | 62 | 288 | 2.0 | 9.0 | 0.00 | 0.00 | 0.00 | 85 | 1013.5 |
| 20260906013052 | 62 | 279 | 4.0 | 8.0 | 0.00 | 0.00 | 0.00 | 84 | 1013.5 |
| 20260906012536 | 62 | 293 | 3.0 | 9.0 | 0.00 | 0.00 | 0.00 | 84 | 1013.5 |
| 20260906012036 | 62 | 271 | 4.0 | 9.0 | 0.00 | 0.00 | 0.00 | 84 | 1013.5 |
| 20260906011552 | 63 | 284 | 3.0 | 8.0 | 0.00 | 0.00 | 0.00 | 83 | 1013.6 |
| 20260906011036 | 63 | 283 | 2.0 | 7.0 | 0.00 | 0.00 | 0.00 | 83 | 1013.6 |
| 20260906010535 | 63 | 269 | 2.0 | 6.0 | 0.00 | 0.00 | 0.00 | 84 | 1013.6 |
| 20260906010059 | 63 | 267 | 2.0 | 6.0 | 0.00 | 0.00 | 0.00 | 84 | 1013.7 |
| 20260906005536 | 63 | 275 | 2.0 | 6.0 | 0.00 | 0.00 | 0.00 | 84 | 1013.7 |
| 20260906005038 | 63 | 278 | 2.0 | 6.0 | 0.00 | 0.00 | 0.00 | 83 | 1013.7 |
| 20260906004549 | 63 | 269 | 2.0 | 6.0 | 0.00 | 0.00 | 0.00 | 83 | 1013.8 |
| 20260906004036 | 63 | 272 | 2.0 | 7.0 | 0.00 | 0.00 | 0.00 | 83 | 1013.7 |
| 20260906003537 | 63 | 294 | 3.0 | 7.0 | 0.00 | 0.00 | 0.00 | 82 | 1013.8 |
| 20260906003110 | 64 | 268 | 3.0 | 7.0 | 0.00 | 0.00 | 0.00 | 82 | 1013.8 |
| 20260906002536 | 64 | 268 | 3.0 | 7.0 | 0.00 | 0.00 | 0.00 | 82 | 1013.8 |
| 20260906002038 | 63 | 296 | 3.0 | 6.0 | 0.00 | 0.00 | 0.00 | 82 | 1013.8 |
| 20260906001553 | 63 | 287 | 2.0 | 6.0 | 0.00 | 0.00 | 0.00 | 82 | 1013.8 |
| 20260906001036 | 64 | 252 | 2.0 | 6.0 | 0.00 | 0.00 | 0.00 | 81 | 1013.8 |
| 20260906000536 | 64 | 236 | 3.0 | 8.0 | 0.00 | 0.00 | 0.00 | 80 | 1013.8 |
| 20260905235539 | 65 | 315 | 2.0 | 8.0 | 0.00 | 0.00 | 0.00 | 81 | 1013.7 |
| 20260905235041 | 65 | 262 | 3.0 | 8.0 | 0.00 | 0.00 | 0.00 | 79 | 1013.8 |
| 20260905234606 | 64 | 287 | 3.0 | 8.0 | 0.00 | 0.00 | 0.00 | 81 | 1013.8 |
| 20260905234037 | 64 | 271 | 2.0 | 8.0 | 0.00 | 0.00 | 0.00 | 80 | 1013.8 |
| 20260905233537 | 64 | 285 | 3.0 | 7.0 | 0.00 | 0.00 | 0.00 | 79 | 1013.9 |
| 20260905233053 | 64 | 290 | 3.0 | 7.0 | 0.00 | 0.00 | 0.00 | 79 | 1013.9 |
| 20260905232536 | 65 | 265 | 2.0 | 7.0 | 0.00 | 0.00 | 0.00 | 80 | 1014.0 |
| 20260905232035 | 64 | 294 | 3.0 | 7.0 | 0.00 | 0.00 | 0.00 | 81 | 1014.1 |
| 20260905231555 | 65 | 240 | 3.0 | 7.0 | 0.00 | 0.00 | 0.00 | 80 | 1014.2 |
| 20260905231034 | 66 | 262 | 3.0 | 8.0 | 0.00 | 0.00 | 0.00 | 80 | 1014.2 |
| 20260905230539 | 65 | 286 | 3.0 | 8.0 | 0.00 | 0.00 | 0.00 | 81 | 1014.1 |
| 20260905230053 | 65 | 269 | 3.0 | 7.0 | 0.00 | 0.00 | 0.00 | 80 | 1014.1 |
| 20260905225537 | 65 | 266 | 3.0 | 7.0 | 0.00 | 0.00 | 0.00 | 81 | 1014.1 |
| 20260905225037 | 65 | 233 | 3.0 | 8.0 | 0.00 | 0.00 | 0.00 | 82 | 1014.2 |
| 20260905224556 | 65 | 284 | 3.0 | 8.0 | 0.00 | 0.00 | 0.00 | 83 | 1014.1 |
| 20260905224036 | 65 | 270 | 3.0 | 8.0 | 0.00 | 0.00 | 0.00 | 82 | 1014.1 |
| 20260905223536 | 64 | 267 | 4.0 | 8.0 | 0.00 | 0.00 | 0.00 | 82 | 1014.2 |
| 20260905223055 | 65 | 279 | 3.0 | 8.0 | 0.00 | 0.00 | 0.00 | 81 | 1014.1 |
| 20260905222538 | 64 | 284 | 3.0 | 8.0 | 0.00 | 0.00 | 0.00 | 81 | 1014.2 |
| 20260905222037 | 65 | 241 | 3.0 | 7.0 | 0.00 | 0.00 | 0.00 | 81 | 1014.2 |
| 20260905221552 | 65 | 246 | 2.0 | 8.0 | 0.00 | 0.00 | 0.00 | 79 | 1014.3 |
| 20260905221036 | 65 | 269 | 3.0 | 8.0 | 0.00 | 0.00 | 0.00 | 81 | 1014.3 |
| 20260905220536 | 65 | 257 | 3.0 | 8.0 | 0.00 | 0.00 | 0.00 | 81 | 1014.3 |
| 20260905220051 | 65 | 270 | 3.0 | 7.0 | 0.00 | 0.00 | 0.00 | 79 | 1014.4 |
| 20260905215536 | 66 | 311 | 1.0 | 7.0 | 0.00 | 0.00 | 0.00 | 80 | 1014.5 |
| 20260905215036 | 66 | 282 | 2.0 | 8.0 | 0.00 | 0.00 | 0.00 | 80 | 1014.5 |
| 20260905214558 | 65 | 251 | 3.0 | 8.0 | 0.00 | 0.00 | 0.00 | 81 | 1014.6 |
| 20260905214037 | 66 | 296 | 4.0 | 8.0 | 0.00 | 0.00 | 0.00 | 79 | 1014.7 |
| 20260905213537 | 65 | 277 | 3.0 | 8.0 | 0.00 | 0.00 | 0.00 | 79 | 1014.6 |
| 20260905213054 | 65 | 259 | 2.0 | 7.0 | 0.00 | 0.00 | 0.00 | 80 | 1014.6 |
| 20260905212539 | 64 | 311 | 3.0 | 7.0 | 0.00 | 0.00 | 0.00 | 80 | 1014.7 |
| 20260905212037 | 64 | 290 | 3.0 | 7.0 | 0.00 | 0.00 | 0.00 | 79 | 1014.7 |
| 20260905211550 | 65 | 222 | 2.0 | 6.0 | 0.00 | 0.00 | 0.00 | 80 | 1014.7 |
| 20260905211033 | 65 | 238 | 2.0 | 8.0 | 0.00 | 0.00 | 0.00 | 79 | 1014.7 |
| 20260905210539 | 65 | 277 | 2.0 | 8.0 | 0.00 | 0.00 | 0.00 | 78 | 1014.7 |
| 20260905210046 | 65 | 300 | 3.0 | 8.0 | 0.00 | 0.00 | 0.00 | 78 | 1014.7 |
| 20260905205536 | 65 | 273 | 2.0 | 6.0 | 0.00 | 0.00 | 0.00 | 77 | 1014.7 |
| 20260905205037 | 65 | 309 | 2.0 | 8.0 | 0.00 | 0.00 | 0.00 | 79 | 1014.7 |
| 20260905204600 | 65 | 263 | 3.0 | 8.0 | 0.00 | 0.00 | 0.00 | 79 | 1014.7 |
| 20260905204038 | 64 | 246 | 3.0 | 7.0 | 0.00 | 0.00 | 0.00 | 80 | 1014.6 |
| 20260905203534 | 65 | 263 | 3.0 | 8.0 | 0.00 | 0.00 | 0.00 | 79 | 1014.5 |
| 20260905203054 | 64 | 237 | 3.0 | 8.0 | 0.00 | 0.00 | 0.00 | 80 | 1014.6 |
| 20260905202536 | 64 | 280 | 3.0 | 7.0 | 0.00 | 0.00 | 0.00 | 78 | 1014.5 |
| 20260905202036 | 64 | 289 | 3.0 | 7.0 | 0.00 | 0.00 | 0.00 | 78 | 1014.4 |
| 20260905201554 | 64 | 225 | 2.0 | 4.0 | 0.00 | 0.00 | 0.00 | 76 | 1014.3 |
| 20260905201036 | 64 | 272 | 2.0 | 8.0 | 0.00 | 0.00 | 0.00 | 79 | 1014.2 |
| 20260905200534 | 64 | 223 | 2.0 | 8.0 | 0.00 | 0.00 | 0.00 | 79 | 1014.2 |
| 20260905200100 | 64 | 213 | 3.0 | 7.0 | 0.00 | 0.00 | 0.00 | 79 | 1014.4 |
| 20260905195537 | 64 | 280 | 3.0 | 8.0 | 0.00 | 0.00 | 0.00 | 79 | 1014.4 |
| 20260905195033 | 64 | 287 | 3.0 | 8.0 | 0.00 | 0.00 | 0.00 | 79 | 1014.3 |
| 20260905194551 | 64 | 220 | 2.0 | 8.0 | 0.00 | 0.00 | 0.00 | 79 | 1014.4 |
| 20260905194038 | 64 | 202 | 3.0 | 8.0 | 0.00 | 0.00 | 0.00 | 80 | 1014.4 |
| 20260905193532 | 64 | 284 | 2.0 | 7.0 | 0.00 | 0.00 | 0.00 | 81 | 1014.4 |
| 20260905193107 | 64 | 277 | 2.0 | 7.0 | 0.00 | 0.00 | 0.00 | 82 | 1014.5 |
| 20260905192537 | 63 | 299 | 3.0 | 7.0 | 0.00 | 0.00 | 0.00 | 81 | 1014.5 |
| 20260905192036 | 64 | 252 | 2.0 | 6.0 | 0.00 | 0.00 | 0.00 | 81 | 1014.4 |
| 20260905191558 | 63 | 234 | 2.0 | 6.0 | 0.00 | 0.00 | 0.00 | 81 | 1014.4 |
| 20260905191033 | 63 | 170 | 2.0 | 6.0 | 0.00 | 0.00 | 0.00 | 81 | 1014.4 |
| 20260905190536 | 63 | 227 | 2.0 | 5.0 | 0.00 | 0.00 | 0.00 | 82 | 1014.5 |
| 20260905190052 | 63 | 221 | 2.0 | 5.0 | 0.00 | 0.00 | 0.00 | 83 | 1014.4 |
| 20260905185543 | 63 | 228 | 2.0 | 6.0 | 0.00 | 0.00 | 0.00 | 83 | 1014.5 |
| 20260905185034 | 63 | 244 | 2.0 | 6.0 | 0.00 | 0.00 | 0.00 | 83 | 1014.5 |
| 20260905184609 | 63 | 227 | 3.0 | 7.0 | 0.00 | 0.00 | 0.00 | 83 | 1014.4 |
| 20260905184038 | 64 | 271 | 2.0 | 7.0 | 0.00 | 0.00 | 0.00 | 83 | 1014.3 |
| 20260905183534 | 63 | 273 | 2.0 | 7.0 | 0.00 | 0.00 | 0.00 | 85 | 1014.4 |
| 20260905183058 | 63 | 196 | 2.0 | 5.0 | 0.00 | 0.00 | 0.00 | 84 | 1014.4 |
| 20260905182533 | 63 | 223 | 1.0 | 5.0 | 0.00 | 0.00 | 0.00 | 85 | 1014.3 |
| 20260905182037 | 63 | 217 | 2.0 | 5.0 | 0.00 | 0.00 | 0.00 | 85 | 1014.3 |
| 20260905181551 | 63 | 234 | 2.0 | 5.0 | 0.00 | 0.00 | 0.00 | 85 | 1014.2 |
| 20260905181037 | 63 | 224 | 2.0 | 5.0 | 0.00 | 0.00 | 0.00 | 85 | 1014.3 |
| 20260905180536 | 63 | 221 | 1.0 | 5.0 | 0.00 | 0.00 | 0.00 | 84 | 1014.3 |
| 20260905180056 | 63 | 242 | 1.0 | 6.0 | 0.00 | 0.00 | 0.00 | 86 | 1014.3 |
| 20260905175533 | 62 | 213 | 3.0 | 6.0 | 0.00 | 0.00 | 0.00 | 85 | 1014.2 |
| 20260905175033 | 62 | 246 | 1.0 | 5.0 | 0.00 | 0.00 | 0.00 | 85 | 1014.1 |
| 20260905174556 | 62 | 212 | 2.0 | 5.0 | 0.00 | 0.00 | 0.00 | 85 | 1014.1 |
| 20260905174037 | 62 | 223 | 2.0 | 4.0 | 0.00 | 0.00 | 0.00 | 85 | 1014.2 |
| 20260905173537 | 62 | 245 | 2.0 | 4.0 | 0.00 | 0.00 | 0.00 | 85 | 1014.1 |
| 20260905173052 | 62 | 184 | 2.0 | 4.0 | 0.00 | 0.00 | 0.00 | 87 | 1014.0 |
| 20260905172536 | 62 | 236 | 2.0 | 6.0 | 0.00 | 0.00 | 0.00 | 86 | 1014.0 |
| 20260905172036 | 62 | 238 | 2.0 | 6.0 | 0.00 | 0.00 | 0.00 | 86 | 1014.0 |
| 20260905171551 | 62 | 283 | 2.0 | 6.0 | 0.00 | 0.00 | 0.00 | 86 | 1014.0 |
| 20260905171036 | 62 | 255 | 2.0 | 6.0 | 0.00 | 0.00 | 0.00 | 86 | 1014.0 |
| 20260905170538 | 62 | 205 | 2.0 | 4.0 | 0.00 | 0.00 | 0.00 | 87 | 1013.9 |
| 20260905170056 | 62 | 245 | 1.0 | 4.0 | 0.00 | 0.00 | 0.00 | 88 | 1013.8 |
| 20260905165537 | 61 | 239 | 1.0 | 4.0 | 0.00 | 0.00 | 0.00 | 89 | 1013.8 |
| 20260905165040 | 61 | 284 | 1.0 | 4.0 | 0.00 | 0.00 | 0.00 | 90 | 1013.7 |
| 20260905164555 | 61 | 279 | 1.0 | 4.0 | 0.00 | 0.00 | 0.00 | 91 | 1013.6 |
| 20260905164037 | 61 | 281 | 1.0 | 4.0 | 0.00 | 0.00 | 0.00 | 92 | 1013.7 |
| 20260905163536 | 60 | 261 | 1.0 | 4.0 | 0.00 | 0.00 | 0.00 | 92 | 1013.6 |
| 20260905163053 | 60 | 286 | 1.0 | 3.0 | 0.00 | 0.00 | 0.00 | 93 | 1013.6 |
| 20260905162538 | 60 | 202 | 0.0 | 2.0 | 0.00 | 0.00 | 0.00 | 93 | 1013.6 |
| 20260905162037 | 60 | 201 | 0.0 | 4.0 | 0.00 | 0.00 | 0.00 | 93 | 1013.5 |
| 20260905161551 | 59 | 201 | 1.0 | 4.0 | 0.00 | 0.00 | 0.00 | 93 | 1013.6 |
| 20260905161036 | 60 | 221 | 1.0 | 3.0 | 0.00 | 0.00 | 0.00 | 93 | 1013.5 |
| 20260905160537 | 59 | 221 | 2.0 | 3.0 | 0.00 | 0.00 | 0.00 | 93 | 1013.4 |
| 20260905160051 | 59 | 0 | 1.0 | 3.0 | 0.00 | 0.00 | 0.00 | 93 | 1013.4 |
| 20260905155539 | 59 | 0 | 1.0 | 3.0 | 0.00 | 0.00 | 0.00 | 93 | 1013.4 |
| 20260905155039 | 59 | 0 | 1.0 | 4.0 | 0.00 | 0.00 | 0.00 | 93 | 1013.4 |
| 20260905154600 | 59 | 161 | 1.0 | 4.0 | 0.00 | 0.00 | 0.00 | 93 | 1013.5 |
| 20260905154036 | 58 | 203 | 0.0 | 3.0 | 0.00 | 0.00 | 0.00 | 93 | 1013.5 |